Wiesbaden, Germany

11:48 PM CEST on July 24, 2016 (GMT +0200)
Wiesbaden Army Air Field

Weather History for ETOU - October, 2012

Change the Weather History Date:

Saturday, October 27, 2012

  Actual Average (EDDF) Record (EDDF)
Temperature  
Mean Temperature 36 °F -  
Max Temperature 39 °F 46 °F 71 °F (2006)
Min Temperature 33 °F 37 °F 30 °F (1997)
Degree Days  
Heating Degree Days 29    
Moisture  
Dew Point 27 °F    
Average Humidity 67    
Maximum Humidity 81    
Minimum Humidity 48    
Precipitation  
Precipitation 0.07 in - - ()
Sea Level Pressure  
Sea Level Pressure 29.57 in    
Wind  
Wind Speed 8 mph ()    
Max Wind Speed 16 mph    
Max Gust Speed 23 mph    
Visibility 6.2 miles    
Events Rain , Snow    
Averages and records for this station are not official NWS values.
T = Trace of Precipitation, MM = Missing Value Source: Averaged Metar Reports

Daily Weather History Graph

Daily Weather History Graph

Search for Another Location

Airport or City:

Trip Planner

Search our weather history database for the weather conditions in past years. The results will help you decide how hot, cold, wet, or windy it might be!

Date:

Astronomy

Oct. 27, 2012 Rise Set
Actual Time 8:08 AM CEST 6:11 PM CEST
Civil Twilight 7:35 AM CEST 6:45 PM CEST
Nautical Twilight 6:57 AM CEST 7:23 PM CEST
Astronomical Twilight 6:19 AM CEST 8:00 PM CEST
Moon 4:56 PM CEST (10/27) 5:37 AM CEST (10/27)
Length of Visible Light 11h 10m
Length of Day
10h 03m
Waxing Gibbous, 95% of the Moon is Illuminated
Oct 27
Waxing Gibbous
Oct 29
Full
Nov 7
Last Quarter
Nov 13
New
Nov 20
First Quarter

Hourly Weather History & Observations

Time (CEST) Temp. Windchill Dew Point Humidity Pressure Visibility Wind Dir Wind Speed Gust Speed Precip Events Conditions
12:24 AM 39.2 °F 34.2 °F 32.0 °F 75% 29.54 in 6.2 mi North 6.9 mph - N/A   Overcast
12:30 AM 39.2 °F 35.0 °F 32.0 °F 75% 29.54 in 6.2 mi North 5.8 mph - N/A   Light Drizzle
12:33 AM 39.2 °F 35.0 °F 32.0 °F 75% 29.54 in 6.2 mi North 5.8 mph - N/A   Light Drizzle
12:58 AM 38.1 °F 32.9 °F 30.7 °F 75% 29.55 in 6.2 mi North 6.9 mph - 0.00 in   Light Drizzle
1:05 AM 37.4 °F 32.1 °F 32.0 °F 81% 29.52 in 6.2 mi North 6.9 mph - N/A   Overcast
1:33 AM 37.4 °F 32.1 °F 32.0 °F 81% 29.51 in 6.2 mi North 6.9 mph - N/A   Overcast
1:58 AM 38.3 °F 33.2 °F 30.0 °F 72% 29.53 in 6.2 mi North 6.9 mph - 0.00 in   Overcast
2:24 AM 39.2 °F 35.0 °F 30.2 °F 70% 29.50 in 6.2 mi North 5.8 mph - N/A   Overcast
2:28 AM 39.2 °F 34.2 °F 30.2 °F 70% 29.50 in 6.2 mi North 6.9 mph - N/A   Overcast
2:29 AM 39.2 °F 33.6 °F 30.2 °F 70% 29.50 in 6.2 mi North 8.1 mph - N/A   Overcast
2:37 AM 37.4 °F 32.1 °F 30.2 °F 75% 29.49 in 6.2 mi North 6.9 mph - N/A   Overcast
2:55 AM 37.4 °F 32.1 °F 30.2 °F 75% 29.48 in 6.2 mi North 6.9 mph - N/A Rain Light Rain
2:58 AM 38.3 °F 32.5 °F 29.5 °F 71% 29.50 in 6.2 mi North 8.1 mph - N/A Rain Light Rain
3:07 AM 37.4 °F 32.1 °F 28.4 °F 70% 29.48 in 6.2 mi North 6.9 mph - N/A Rain Light Rain
3:26 AM 37.4 °F 32.1 °F 28.4 °F 70% 29.47 in 6.2 mi North 6.9 mph - N/A   Scattered Clouds
3:58 AM 37.6 °F 30.5 °F 28.8 °F 70% 29.48 in 6.2 mi North 10.4 mph - 0.00 in   Overcast
4:28 AM 37.4 °F 31.4 °F 28.4 °F 70% 29.45 in 6.2 mi North 8.1 mph - N/A Rain Light Rain
4:58 AM 37.4 °F 31.4 °F 28.4 °F 70% 29.47 in 6.2 mi North 8.1 mph - 0.00 in Rain Light Rain
5:13 AM 37.4 °F 30.3 °F 28.4 °F 70% 29.45 in 6.2 mi North 10.4 mph - N/A Rain Light Rain
5:53 AM 35.6 °F 28.0 °F 28.4 °F 75% 29.45 in 6.2 mi North 10.4 mph - N/A Rain Light Rain
5:58 AM 36.5 °F 31.0 °F 28.0 °F 71% 29.45 in 6.2 mi North 6.9 mph - 0.01 in Rain Light Rain
6:58 AM 36.1 °F 29.3 °F 27.9 °F 72% 29.46 in 6.2 mi North 9.2 mph - 0.02 in Rain Light Rain
7:19 AM 35.6 °F 27.5 °F 28.4 °F 75% 29.46 in 6.2 mi North 11.5 mph - N/A Rain Light Rain
7:26 AM 35.6 °F 28.6 °F 28.4 °F 75% 29.46 in 6.2 mi North 9.2 mph 17.3 mph N/A Rain Light Rain
7:43 AM 35.6 °F - 28.4 °F 75% 29.47 in 6.2 mi Calm Calm - N/A Rain Light Rain
7:58 AM 35.4 °F - 27.3 °F 72% 29.48 in 6.2 mi Calm Calm - 0.02 in Rain Light Rain
7:59 AM 35.6 °F 29.2 °F 26.6 °F 70% 29.48 in 6.2 mi North 8.1 mph 17.3 mph N/A Rain Light Rain
8:12 AM 35.6 °F 28.0 °F 26.6 °F 70% 29.48 in 6.2 mi North 10.4 mph - N/A Snow Light Snow
8:25 AM 35.6 °F 29.2 °F 26.6 °F 70% 29.49 in 6.2 mi North 8.1 mph - N/A Snow Light Snow
8:58 AM 34.7 °F 28.1 °F 27.0 °F 73% 29.53 in 6.2 mi North 8.1 mph - 0.01 in Snow Light Snow
9:19 AM 33.8 °F 26.4 °F 26.6 °F 75% 29.51 in 6.2 mi North 9.2 mph - N/A Snow Light Snow
9:53 AM 35.6 °F 28.6 °F 26.6 °F 70% 29.52 in 6.2 mi North 9.2 mph - N/A Rain Light Rain
9:58 AM 35.1 °F 26.4 °F 26.8 °F 72% 29.55 in 6.2 mi North 12.7 mph 17.3 mph 0.01 in Rain Light Rain
10:03 AM 35.6 °F 27.5 °F 26.6 °F 70% 29.52 in 6.2 mi North 11.5 mph 17.3 mph N/A   Mostly Cloudy
10:16 AM 35.6 °F 27.1 °F 26.6 °F 70% 29.53 in 6.2 mi North 12.7 mph 19.6 mph N/A Rain Light Rain
10:21 AM 35.6 °F 26.6 °F 26.6 °F 70% 29.53 in 6.2 mi North 13.8 mph 19.6 mph N/A   Mostly Cloudy
10:58 AM 35.8 °F 27.3 °F 25.2 °F 65% 29.58 in 6.2 mi North 12.7 mph 23.0 mph 0.00 in   Mostly Cloudy
11:02 AM 35.6 °F 27.1 °F 24.8 °F 65% 29.55 in 6.2 mi North 12.7 mph 23.0 mph N/A   Mostly Cloudy
11:05 AM 35.6 °F 27.1 °F 24.8 °F 65% 29.55 in 6.2 mi North 12.7 mph 23.0 mph N/A   Mostly Cloudy
11:18 AM 35.6 °F 26.6 °F 24.8 °F 65% 29.56 in 6.2 mi North 13.8 mph 19.6 mph N/A   Mostly Cloudy
11:19 AM 35.6 °F 27.1 °F 24.8 °F 65% 29.56 in 6.2 mi North 12.7 mph 19.6 mph N/A   Mostly Cloudy
11:22 AM 35.6 °F 28.0 °F 24.8 °F 65% 29.56 in 6.2 mi North 10.4 mph 19.6 mph N/A   Overcast
11:23 AM 35.6 °F 27.5 °F 24.8 °F 65% 29.56 in 6.2 mi North 11.5 mph 19.6 mph N/A   Overcast
11:41 AM 35.6 °F 27.5 °F 24.8 °F 65% 29.57 in 6.2 mi North 11.5 mph 18.4 mph N/A   Overcast
11:58 AM 36.0 °F 27.5 °F 25.2 °F 65% 29.61 in 6.2 mi North 12.7 mph 18.4 mph 0.00 in Rain Light Rain
12:11 PM 35.6 °F 27.5 °F 24.8 °F 65% 29.59 in 6.2 mi North 11.5 mph 21.9 mph N/A Snow Light Snow
12:39 PM 35.6 °F 27.1 °F 24.8 °F 65% 29.60 in 6.2 mi North 12.7 mph 17.3 mph N/A Rain Light Rain
12:40 PM 35.6 °F 26.6 °F 24.8 °F 65% 29.60 in 6.2 mi North 13.8 mph - N/A   Overcast
12:58 PM 36.9 °F 28.7 °F 25.5 °F 64% 29.63 in 6.2 mi North 12.7 mph 23.0 mph 0.00 in   Overcast
1:58 PM 38.7 °F 30.5 °F 25.0 °F 58% 29.65 in 6.2 mi North 13.8 mph 21.9 mph N/A   Overcast
2:58 PM 39.0 °F 30.3 °F 24.1 °F 55% 29.68 in 6.2 mi NNE 16.1 mph 21.9 mph N/A   Overcast
3:58 PM 39.6 °F 34.7 °F 23.7 °F 53% 29.71 in 6.2 mi Variable 6.9 mph 19.6 mph N/A   Overcast
4:58 PM 39.2 °F 31.2 °F 22.5 °F 51% 29.73 in 6.2 mi North 13.8 mph 19.6 mph N/A   Overcast
5:58 PM 38.8 °F 33.2 °F 21.6 °F 50% 29.77 in 6.2 mi North 8.1 mph - N/A   Overcast
6:58 PM 38.3 °F 34.8 °F 20.3 °F 48% 29.81 in 6.2 mi North 4.6 mph - N/A   Overcast
7:58 PM 37.2 °F 32.6 °F 20.1 °F 50% 29.84 in 6.2 mi North 5.8 mph - N/A   Overcast
8:58 PM 36.0 °F 28.5 °F 18.7 °F 50% 29.85 in 6.2 mi North 10.4 mph - N/A   Overcast
9:58 PM 34.7 °F 28.1 °F 18.3 °F 51% 29.87 in 6.2 mi North 8.1 mph - N/A   Scattered Clouds
10:58 PM 34.0 °F 27.2 °F 18.5 °F 53% 29.88 in 6.2 mi North 8.1 mph - N/A   Clear
11:58 PM 33.8 °F 30.8 °F 18.7 °F 54% 29.90 in 6.2 mi North 3.5 mph - N/A   Clear